EW0079 Weather Reports


time (UTC)temp
F
wind
direction
speed
knots
gust
knots
rain 1hr
in
rain 24hr
in
rain mn
in
humidity
%
barometer
mb
20260503040012 55 0 0.0 0.0 0.00 0.00 0.00 1 1018.1
20260503033012 55 0 0.0 0.0 0.00 0.00 0.00 1 1018.2
20260503031513 55 0 0.0 0.0 0.00 0.00 0.00 1 1018.5
20260503024512 55 0 0.0 0.0 0.00 0.00 0.00 1 1018.6
20260503023012 55 92 0.9 4.3 0.00 0.00 0.00 1 1018.2
20260503021512 56 77 0.0 3.5 0.00 0.00 0.00 1 1018.2
20260503020012 56 0 0.0 0.0 0.00 0.00 0.00 1 1018.5
20260503011512 57 0 0.0 0.0 0.00 0.00 0.00 9 1018.6
20260503010012 57 0 0.0 0.0 0.00 0.00 0.00 13 1018.8
20260503001513 58 0 0.0 0.0 0.00 0.00 0.00 20 1019.4
20260502234512 58 0 0.0 0.0 0.00 0.00 0.00 18 1019.8
20260502233012 58 0 0.0 0.0 0.00 0.00 0.00 16 1019.9
20260502231512 58 0 0.0 0.0 0.00 0.00 0.00 18 1019.9
20260502230012 58 0 0.0 0.0 0.00 0.00 0.00 17 1020.0
20260502224512 58 0 0.0 0.0 0.00 0.00 0.00 17 1019.8
20260502223012 58 0 0.0 0.0 0.00 0.00 0.00 18 1020.0
20260502221512 58 0 0.0 0.0 0.00 0.00 0.00 13 1019.9
20260502220013 58 0 0.0 0.0 0.00 0.00 0.00 15 1020.0
20260502214512 58 0 0.0 0.0 0.00 0.00 0.00 17 1020.0
20260502213012 58 0 0.0 0.0 0.00 0.00 0.00 20 1020.1
20260502211511 58 0 0.0 0.0 0.00 0.00 0.00 26 1020.0
20260502210015 59 101 0.0 1.7 0.00 0.00 0.00 38 1019.8
20260502204512 60 0 0.0 0.0 0.00 0.00 0.00 50 1019.9
20260502203012 60 0 0.0 0.0 0.00 0.00 0.00 52 1019.9
20260502201512 60 0 0.0 0.0 0.00 0.00 0.00 54 1019.7
20260502200012 61 232 0.0 1.7 0.00 0.00 0.00 56 1019.7
20260502194512 61 231 0.0 1.7 0.00 0.00 0.00 58 1019.6
20260502193012 61 232 0.0 2.6 0.00 0.00 0.00 59 1019.6
20260502191513 61 249 0.9 2.6 0.00 0.00 0.00 60 1019.4
20260502190012 62 243 0.9 3.5 0.00 0.00 0.00 61 1019.3
20260502184512 63 228 2.6 7.0 0.00 0.00 0.00 60 1019.4
20260502183012 64 236 3.5 8.7 0.00 0.00 0.00 58 1019.5
20260502181512 64 241 4.3 7.0 0.00 0.00 0.00 58 1019.4
20260502163012 66 238 7.0 11.3 0.00 0.00 0.00 56 1020.0
20260502161512 66 243 7.0 12.2 0.00 0.00 0.00 54 1019.8
20260502151512 66 203 3.5 8.7 0.00 0.00 0.00 58 1020.1
20260502123012 64 120 5.2 11.3 0.00 0.00 0.00 60 1021.8
20260502121512 65 148 5.2 11.3 0.00 0.00 0.00 60 1022.0
20260502114512 65 134 3.5 10.4 0.00 0.00 0.00 60 1022.1
20260502113012 65 131 4.3 9.6 0.00 0.00 0.00 60 1022.4
20260502111512 64 127 4.3 11.3 0.00 0.00 0.00 60 1022.4
20260502110012 63 112 6.1 13.9 0.00 0.00 0.00 60 1022.6
20260502104512 63 118 6.1 12.2 0.00 0.00 0.00 59 1022.9
20260502103012 62 118 6.1 9.6 0.00 0.00 0.00 58 1022.9
20260502101512 61 112 7.0 13.9 0.00 0.00 0.00 57 1023.1
20260502071512 54 103 5.2 12.2 0.00 0.00 0.00 1 1023.0
20260502070012 54 99 4.3 10.4 0.00 0.00 0.00 1 1023.1
20260502064511 53 99 3.5 9.6 0.00 0.00 0.00 1 1023.2
20260502063012 52 100 2.6 7.8 0.00 0.00 0.00 1 1023.3
20260502060012 52 96 4.3 8.7 0.00 0.00 0.00 1 1022.9
20260502054511 52 93 4.3 8.7 0.00 0.00 0.00 1 1022.8
20260502053012 52 99 3.5 9.6 0.00 0.00 0.00 1 1022.9
20260502051511 52 98 4.3 7.8 0.00 0.00 0.00 1 1022.9
20260502050012 52 100 4.3 7.0 0.00 0.00 0.00 1 1022.8
20260502044512 52 102 3.5 7.8 0.00 0.00 0.00 1 1022.9
20260502041511 52 103 4.3 8.7 0.00 0.00 0.00 1 1022.9